Starlink 2621

operational
NORAD ID: 48370 Int'l Des: 2021-038 Owner: SPXS Country: US Constellation: starlink
LEOCIRCULARSTARLINK_TYPE

About Starlink 2621

Description loading...

Live Position

Loading 3D Globe...

Upcoming Passes

Altitude History

Altitude vs Time

uPlot chart will show altitude changes over time

Two-Line Element Set

1 48370U 21038T 25296.16182517 .00004704 00000-0 33447-3 0 9990
2 48370 53.0536 249.0044 0001354 76.3424 283.7715 15.06400337246439
Epoch: Oct 23, 2025 • Age: 22 hours

Current Status

Altitude 561.8 km
Velocity 7.58 km/s
Sub-Earth Point -41.93°S, 141.04°E
Launch Date May 4, 2021
Age 4.4 years
Type internet

Technical Details

Classification Payload
Mass 260.00 kg
Dry Mass 248.00 kg
Total Mass 260.00 kg
Length 0.20 m
Diameter 2.80 m
Span 9.00 m
Shape Box + pan
Manufacturer SPXS
Bus Type Starlink
Phase Status In Orbit
Owner/State SPXS/US

Large Constellations

Loading constellations...